Regional Weather Roundup
Issued by NWS Charleston, SC

Current Version | Previous Version | Graphics & Text | Print | Product List | Glossary On
Versions: 1 2 3 4 5 6 7 8 9 10 11 12 13 14 15 16 17 18 19 20 21 22 23 24 25 26 27 28 29 30 31 32 33 34 35 36 37 38 39 40 41 42 43 44 45 46 47 48 49 50
000 ASUS42 KCHS 240212 RWRCHS REGIONAL WEATHER ROUNDUP NATIONAL WEATHER SERVICE CHARLESTON SC 1000 PM EDT TUE MAY 23 2017 NOTE: "FAIR" INDICATES FEW OR NO CLOUDS BELOW 12,000 FEET WITH NO SIGNIFICANT WEATHER AND/OR OBSTRUCTIONS TO VISIBILITY. NOT ALL STATIONS ARE QUALITY CONTROLLED. USE DATA WITH CAUTION... ESPECIALLY DEWPOINT OBSERVATIONS. SCZ027-030-031-034>040-042>050-240300- ...SOUTHEAST SOUTH CAROLINA... CITY SKY/WX TMP DP RH WIND PRES REMARKS N CHARLESTON LGT RAIN 69 66 90 S10 29.72F WATERFRONT PRK N/A 71 69 93 VRB2 29.72F JOHNS ISLAND LGT RAIN 70 70 100 CALM 29.74S PINOPOLIS N/A 68 68 100 S6 29.62F MONCKS CORNER FAIR 66 66 100 SW5 29.71S SUMMERVILLE FAIR 68 68 100 S7 29.72S BEAUFORT MCAS LGT RAIN 70 70 100 SW3 29.73F BEAUFORT ARPT CLOUDY 70 70 100 W5 29.72F HILTON HEAD IS DRIZZLE 73 73 100 SW10G21 29.74R WALTERBORO CLOUDY 68 68 100 S8 29.73S ALLENDALE CLOUDY 68 68 100 CALM 29.71S ...SOUTHERN MIDLANDS AND PEE DEE... CITY SKY/WX TMP DP RH WIND PRES REMARKS GEORGETOWN LGT RAIN 64 64 100 S5 29.72F KINGSTREE CLOUDY N/A N/A N/A CALM 29.71F ORANGEBURG LGT RAIN 68 67 96 S6 29.72S BARNWELL CLOUDY 70 70 100 CALM 29.71F AIKEN CLOUDY 64 64 100 CALM 29.75S MANNING CLOUDY 68 68 100 S8 29.71S COLUMBIA CLOUDY 68 65 90 SW3 29.70S VSB 1 SUMTER CLOUDY 69 67 94 SW6 29.69R FLORENCE LGT RAIN 69 69 100 S8 29.70S MYRTLE BEACH LGT RAIN 70 68 94 S7 29.71 N MYRTLE BEACH CLOUDY 69 67 93 S5 29.69F $$ GAZ063-065-086>088-099>101-113>116-118-119-134>141-150-240300- ...SOUTHEAST GEORGIA... CITY SKY/WX TMP DP RH WIND PRES REMARKS SAVANNAH ARPT TSTM 74 70 87 S10 29.72F HUNTER AAF DRIZZLE 70 70 100 CALM 29.71F FORT STEWART CLOUDY 73 70 90 S6 29.71R STATESBORO CLOUDY 70 70 100 CALM 29.72S SYLVANIA CLOUDY 69 69 100 CALM 29.73R CLAXTON MOCLDY N/A N/A N/A S5 29.73R ...CSRA...CENTRAL AND FAR SOUTHEAST GEORGIA... CITY SKY/WX TMP DP RH WIND PRES REMARKS THOMSON CLOUDY 66 65 98 CALM 29.76S FOG AUGUSTA-BUSH CLOUDY 70 68 93 CALM 29.71S AUGUSTA-DANIEL CLOUDY 70 65 84 CALM 29.72S SWAINSBORO CLOUDY 70 70 100 CALM 29.73R VIDALIA CLOUDY 72 72 100 CALM 29.72F EASTMAN RAIN 72 72 100 CALM 29.75R HAZLEHURST FAIR 73 73 100 CALM 29.72S ALMA CLOUDY 75 71 87 S8 29.73R WAYCROSS CLOUDY 78 73 85 SW14 29.75R JESUP FAIR 72 66 83 SW6 29.75S BAXLEY MOCLDY 73 73 100 S7 29.73S BRUNSWICK RAIN 75 73 94 SW14G21 29.77S SAINT SIMONS LGT RAIN 77 71 82 SW14G22 29.77S $$ SCZ027-028-034-036>038-045-046-048>050-GAZ119-141-240300- ...LAKE AND SUPPLEMENTAL COASTAL OBSERVATIONS... STATION/POSITION TIME TEMP WIND PRES WAVE SWELL AIR SEA DIR/SP/G HT/PER HT/PER/DIR (UTC) (F) (DEG/KT/KT) (MB) (FT/S) (FT/S/D) WINYAH BAY NOT AVBL LAKE MURRAY 0120 69 200/ 8/ 12 1005.4 ACE BASIN NERRS NOT AVBL FORT PULASKI 0148 73 220/ 8/ 13 1007.2R SAPELO ISLAND 0100 79 210/ 20 1007.0 $$ ANZ835-935-AMZ111-154-330-350-352-354-370-450-454-472-240300- ...C-MAN AND BUOY OBSERVATIONS... STATION/POSITION TIME TEMP WIND PRES WAVE SWELL AIR SEA DIR/SP/G HT/PER HT/PER/DIR (UTC) (F) (DEG/KT/KT) (MB) (FT/S) (FT/S/D) BUOY 41004 0150 74 78 250/ 17/ 25 1006.6R 5/ 5 3/180/ 6 BUOY 41008 0050 80 78 220/ 16/ 19 1007.2 4/ 5 FOLLY BEACH CMAN 0200 72 290/ 7/ 12 1007.8R CAPERS NEARSHORE 0108 75 76 220/ 12/ 19 1006.6F FRIPP NEARSHORE 0108 77 78 230/ 16/ 19 1006.4S STATION/POSITION TIME TEMP WIND PRES WAVE SWELL AIR SEA DIR/SP/G HT/PER HT/PER/DIR (UTC) (F) (DEG/KT/KT) (MB) (FT/S) (FT/S/D) 5E ST. MARYS GA 0100 79 N/A 3/ 6 FRYING PAN BUOY 0150 71 77 320/ 10/ 16 1006.6F 6/ 8 5/180/ 8 BUOY 41025 0150 76 75 230/ 17/ 19 1006.3F 6/ 7 2/ 90/11 CAPE LOOKOUT NC 0200 74 220/ 13/ 16 1006.2F BUOY 41002 0150 77 76 190/ 17/ 21 1011.9F 6/ 6 2/110/12 BUOY 41010 0200 80 79 180/ 17/ 19 1011.5 ST AUGUSTINE FL 0200 81 78 210/ 9/ 11 1010.1R $$

USA.gov is the U.S. government's official web portal to all federal, state and local government web resources and services.